Location: Emory University Observatory
(33.7903°N, 84.3267°W)
Time: 23:50:23
(UTC-05:00)

Tiangong 2 - Pass Details

Date: 10 October 2017
Orbit: 386 x 390 km, 42.8° (Epoch: 11 December)

Event Time Altitude Azimuth Distance (km) Brightness Sun altitude
Exits shadow 05:37:15 22° 55° (NE) 908 3.6 -25.9°
Drops below altitude 10° 05:38:32 10° 58° (ENE) 1,421 4.8 -25.7°
Sets 05:40:38 0° 60° (ENE) 2,279 6.1 -25.2°
